#timestamp,LO_Frequency,Hit,StdDev 
1604757615.2,286046998.3,N
1604757635.0,286046999.0,N
1604757635.9,286046999.0,N
1604757655.7,286046998.7,N
1604757675.6,286047001.2,N
1604757695.4,286046998.3,N
1604757715.3,286046998.4,N
1604757735.1,286046997.5,N
1604757736.0,286046997.5,N
1604757755.8,286046992.3,Y
1604757775.7,286046993.9,P
1604757795.5,286046997.6,N
1604757815.4,286046994.9,N
1604757835.2,286046997.6,N
1604757855.0,286046999.1,N
1604757855.9,286046999.1,N
1604757875.8,286046999.0,N
1604757895.6,286046998.9,N
1604757915.4,286046997.3,N
1604757935.3,286046995.5,N
1604757955.1,286046995.6,N
1604757975.9,286046994.4,Y
1604757995.7,286046995.6,P
1604758015.5,286046997.0,P
1604758035.4,286046995.0,P
1604758055.2,286046999.1,N
1604758075.1,286046997.2,N
1604758076.0,286046997.2,N
1604758095.8,286046995.0,Y
1604758115.6,286047000.8,P
1604758135.5,286047000.8,N
1604758155.3,286047002.6,N
1604758175.1,286047004.0,N
1604758195.9,286047004.2,N
1604758215.7,286047004.4,N
1604758235.6,286047003.6,N
1604758255.4,286047007.5,Y
1604758275.2,286047005.6,P
1604758295.1,286047003.9,N
1604758296.0,286047003.9,N
1604758315.8,286047001.4,N
1604758335.7,286047002.5,N
1604758355.5,286047000.6,N
1604758375.3,286047002.7,N
1604758395.2,286047002.5,N
1604758415.0,286046999.9,N
1604758415.9,286046999.9,N
1604758435.7,286047001.3,N
1604758455.6,286047002.7,N
1604758475.4,286047002.0,N
1604758495.3,286047001.4,N
1604758515.1,286047002.3,N
1604758516.0,286047002.3,N
1604758535.8,286047000.1,N
1604758555.7,286047001.4,N
1604758575.5,286047001.4,N
1604758595.4,286047003.9,N
1604758615.2,286047001.5,N
1604758635.0,286047002.3,N
1604758635.9,286047002.3,N
1604758655.8,286047004.0,N
1604758675.6,286047002.7,N
1604758695.4,286046998.2,N
1604758715.3,286047002.2,N
1604758735.1,286047001.8,N
1604758755.9,286047000.9,N
1604758775.7,286047000.6,N
1604758795.5,286047002.3,N
1604758815.4,286047001.2,N
1604758835.2,286047001.0,N
1604758855.0,286047002.3,N
1604758855.9,286047002.3,N
1604758875.8,286047001.8,N
1604758895.6,286047002.8,N
1604758915.5,286046999.4,N
1604758935.3,286046997.5,N
1604758955.1,286046995.9,N
1604758975.9,286046997.8,N
1604758995.7,286046998.8,N
1604759015.5,286046998.1,N
1604759035.4,286047001.1,N
1604759055.2,286046998.3,N
1604759075.1,286046999.7,N
1604759076.0,286046999.7,N
1604759095.8,286047000.4,N
1604759115.6,286046998.1,N
1604759135.5,286046999.3,N
1604759155.3,286047000.3,N
1604759175.1,286046996.7,N
1604759195.9,286046996.3,N
1604759215.7,286046993.4,Y
1604759235.6,286046993.8,P
1604759255.4,286046994.0,N
1604759275.2,286046996.0,N
1604759295.1,286046998.9,N
1604759296.0,286046998.9,N
1604759315.8,286046997.6,N
1604759335.6,286046997.1,N
1604759355.5,286046999.2,N
1604759375.3,286046999.4,N
1604759395.2,286046995.0,N
1604759415.9,286046999.1,N
1604759435.7,286046999.0,N
1604759455.6,286047000.5,N
1604759475.4,286046999.0,N
1604759495.2,286046998.0,N
1604759515.1,286046995.7,N
1604759516.0,286046995.7,N
1604759535.8,286046996.7,N
1604759555.7,286046999.5,N
1604759575.5,286046994.9,N
1604759595.3,286046993.7,Y
1604759615.2,286046997.1,P
1604759635.0,286046999.5,N
1604759635.9,286046999.5,N
1604759655.7,286047001.2,N
1604759675.6,286047002.5,N
1604759695.4,286047001.7,N
1604759715.3,286047000.2,N
1604759735.1,286047004.2,N
1604759736.0,286047004.2,N
1604759755.8,286047006.0,N
1604759775.7,286047004.1,N
1604759795.5,286047005.9,N
1604759815.3,286047002.5,N
1604759835.2,286047000.4,N
1604759855.0,286046998.7,N
1604759855.9,286046998.7,N
1604759875.8,286046998.5,N
1604759895.6,286046997.0,N
1604759915.4,286046997.8,N
1604759935.3,286046995.3,N
1604759955.1,286046999.3,N
1604759975.8,286047000.8,N
1604759995.7,286047002.5,N
1604760015.5,286047004.0,N
1604760035.4,286047003.5,N
1604760055.2,286047005.7,N
1604760075.0,286047005.3,N
1604760075.9,286047005.3,N
1604760095.8,286047004.3,N
1604760115.6,286047002.9,N
1604760135.4,286047005.6,N
1604760155.3,286047006.6,N
1604760175.1,286047009.1,Y
1604760195.9,286047005.5,P
1604760215.7,286047005.9,P
1604760235.5,286047001.6,N
1604760255.4,286047002.1,N
1604760275.2,286047003.6,N
1604760295.0,286047002.2,N
1604760296.0,286047002.2,N
1604760315.8,286047002.5,N
1604760335.6,286046999.7,N
1604760355.5,286046998.5,N
1604760375.3,286046996.8,N
1604760395.1,286046997.9,N
1604760415.9,286046997.5,N
1604760435.7,286046997.6,N
1604760455.6,286046995.3,N
1604760475.4,286046996.2,N
1604760495.2,286046997.9,N
1604760515.1,286046999.2,N
1604760516.0,286046999.2,N
1604760535.8,286047000.7,N
1604760555.6,286046999.2,N
1604760575.5,286046999.7,N
1604760595.3,286046999.9,N
1604760615.2,286047000.1,N
1604760635.9,286047000.5,N
1604760655.7,286047000.3,N
1604760675.6,286046997.1,N
1604760695.4,286046997.9,N
1604760715.2,286046995.1,N
1604760735.1,286046993.4,N
1604760736.0,286046993.4,N
1604760755.8,286046993.8,N
1604760775.7,286046992.1,N
1604760795.5,286046995.7,N
1604760815.3,286046995.4,N
1604760835.2,286046995.3,N
1604760855.9,286046997.2,N
1604760875.7,286046995.5,N
1604760895.6,286046999.1,N
1604760915.4,286046996.5,N
1604760935.3,286046999.0,N
1604760955.1,286046995.2,N
1604760956.0,286046995.2,N
1604760975.8,286046995.8,N
1604760995.7,286046995.5,N
1604761015.5,286046996.1,N
1604761035.3,286046999.6,N
1604761055.2,286046999.1,N
1604761075.0,286047001.1,N
1604761075.9,286047001.1,N
1604761095.8,286047001.8,N
1604761115.6,286046999.7,N
1604761135.4,286047002.2,N
1604761155.3,286047000.3,N
1604761175.1,286046998.1,N
1604761195.9,286046999.3,N
